This is the latest recevied weather packets stored in our database for station/object IZ1DME-3. If no packets are shown the sender has not sent any weather packets the latest 10 day(s).
| Time | Temp. | Humidity | Pressure | Rain* | Wind** | Luminosity | Snow |
|---|---|---|---|---|---|---|---|
| 1777336775 | 15.56° C | 60% | 1017.1 hPa | - | - | - | - |
| 1777335275 | 16.11° C | 58% | 1017.2 hPa | - | - | - | - |
| 1777333775 | 16.11° C | 58% | 1017.4 hPa | - | - | - | - |
| 1777332275 | 16.67° C | 58% | 1017.3 hPa | - | - | - | - |
| 1777330774 | 16.11° C | 60% | 1017.3 hPa | - | - | - | - |
| 1777329274 | 16.67° C | 58% | 1017.2 hPa | - | - | - | - |
| 1777327774 | 16.67° C | 59% | 1017.2 hPa | - | - | - | - |
| 1777326275 | 17.22° C | 58% | 1017.2 hPa | - | - | - | - |
| 1777324775 | 17.22° C | 58% | 1017.2 hPa | - | - | - | - |
| 1777323274 | 17.78° C | 60% | 1017.2 hPa | - | - | - | - |
| 1777321774 | 17.78° C | 59% | 1017.1 hPa | - | - | - | - |
| 1777320274 | 18.89° C | 52% | 1016.9 hPa | - | - | - | - |
| 1777318774 | 19.44° C | 52% | 1016.8 hPa | - | - | - | - |
| 1777317274 | 20° C | 50% | 1016.6 hPa | - | - | - | - |
| 1777315774 | 21.11° C | 50% | 1016.2 hPa | - | - | - | - |
| 1777314274 | 21.11° C | 51% | 1016.1 hPa | - | - | - | - |
| 1777312774 | 22.22° C | 43% | 1015.6 hPa | - | - | - | - |
| 1777311275 | 22.78° C | 41% | 1015.6 hPa | - | - | - | - |
| 1777309775 | 22.78° C | 42% | 1015.6 hPa | - | - | - | - |
| 1777308276 | 23.33° C | 39% | 1015.6 hPa | - | - | - | - |
| 1777306775 | 23.89° C | 40% | 1015.5 hPa | - | - | - | - |
| 1777305274 | 25° C | 34% | 1015.2 hPa | - | - | - | - |
| 1777303775 | 25° C | 34% | 1015.3 hPa | - | - | - | - |
| 1777302276 | 25.56° C | 34% | 1015.4 hPa | - | - | - | - |
| 1777300775 | 25.56° C | 34% | 1015.6 hPa | - | - | - | - |
* Rain since midnight (hover to see other rain measurements)
** Current wind speed in m/s (hover to see current wind gust speed)